Location: Castiglione Fibocchi
(43.5333°N, 11.7667°E)
Time: 18:15:03
(UTC+00:00)

Cosmos 1603 - Pass Details

Date: 15 August 2020
Orbit: 830 x 860 km, 71.0° (Epoch: 17 September)

Event Time Altitude Azimuth Distance (km) Brightness Sun altitude
Rises 00:47:43 0° 337° (NNW) 3,442 7.4 -28.9°
Reaches altitude 10° 00:50:14 10° 341° (NNW) 2,499 6.7 -28.7°
Maximum altitude 00:55:56 63° 62° (ENE) 952 4.0 -28.3°
Enters shadow 00:57:19 48° 117° (ESE) 1,107 4.2 -28.1°
